| time (UTC) | temp C | wind direction | speed KPH | gust KPH | rain 1hr cm | rain 24hr cm | rain mn cm | humidity % | barometer mb |
| 20260504081529 | 8 | 349 | 6.4 | 16.1 | 0.00 | 0.00 | 0.00 | 49 | 1017.8 |
| 20260504044536 | 13 | 0 | 0.0 | 16.1 | 0.00 | 0.00 | 0.00 | 38 | 1011.0 |
| 20260504043041 | 13 | 0 | 3.2 | 17.7 | 0.00 | 0.00 | 0.00 | 37 | 1011.0 |
| 20260504041530 | 13 | 0 | 0.0 | 16.1 | 0.00 | 0.00 | 0.00 | 36 | 1010.6 |
| 20260504040035 | 13 | 276 | 8.0 | 12.9 | 0.00 | 0.00 | 0.00 | 37 | 1010.6 |
| 20260504034536 | 14 | 289 | 4.8 | 11.3 | 0.00 | 0.00 | 0.00 | 33 | 1010.5 |
| 20260504033032 | 15 | 266 | 3.2 | 9.7 | 0.00 | 0.00 | 0.00 | 32 | 1010.2 |
| 20260504031530 | 14 | 314 | 3.2 | 4.8 | 0.00 | 0.00 | 0.00 | 34 | 1010.1 |
| 20260504030029 | 15 | 314 | 4.8 | 8.0 | 0.00 | 0.00 | 0.00 | 31 | 1010.0 |
| 20260504024532 | 17 | 325 | 3.2 | 6.4 | 0.00 | 0.00 | 0.00 | 30 | 1009.8 |
| 20260504023030 | 18 | 325 | 4.8 | 8.0 | 0.00 | 0.00 | 0.00 | 28 | 1009.7 |
| 20260504021535 | 19 | 316 | 4.8 | 9.7 | 0.00 | 0.00 | 0.00 | 28 | 1009.7 |
| 20260504020037 | 20 | 315 | 6.4 | 12.9 | 0.00 | 0.00 | 0.00 | 25 | 1009.7 |
| 20260504014537 | 21 | 319 | 9.7 | 16.1 | 0.00 | 0.00 | 0.00 | 21 | 1009.7 |
| 20260504013031 | 22 | 333 | 8.0 | 14.5 | 0.00 | 0.00 | 0.00 | 20 | 1009.7 |
| 20260504011532 | 22 | 311 | 9.7 | 17.7 | 0.00 | 0.00 | 0.00 | 21 | 1009.9 |
| 20260504010032 | 22 | 301 | 11.3 | 20.9 | 0.00 | 0.00 | 0.00 | 16 | 1009.9 |
| 20260504004534 | 22 | 287 | 11.3 | 29.0 | 0.00 | 0.00 | 0.00 | 15 | 1009.9 |
| 20260504003029 | 23 | 299 | 17.7 | 24.1 | 0.00 | 0.00 | 0.00 | 15 | 1010.2 |
| 20260504001532 | 24 | 307 | 20.9 | 29.0 | 0.00 | 0.00 | 0.00 | 14 | 1010.2 |
| 20260504000029 | 24 | 306 | 16.1 | 27.4 | 0.00 | 0.00 | 0.00 | 14 | 1010.3 |
| 20260503234532 | 24 | 330 | 22.5 | 32.2 | 0.00 | 0.00 | 0.00 | 14 | 1010.3 |
| 20260503233029 | 24 | 291 | 20.9 | 30.6 | 0.00 | 0.00 | 0.00 | 16 | 1010.5 |
| 20260503231532 | 25 | 292 | 4.8 | 25.7 | 0.00 | 0.00 | 0.00 | 17 | 1010.5 |
| 20260503230032 | 24 | 301 | 9.7 | 29.0 | 0.00 | 0.00 | 0.00 | 17 | 1010.7 |
| 20260503224529 | 24 | 343 | 12.9 | 27.4 | 0.00 | 0.00 | 0.00 | 18 | 1011.1 |
| 20260503223028 | 24 | 288 | 8.0 | 24.1 | 0.00 | 0.00 | 0.00 | 16 | 1011.1 |
| 20260503221532 | 24 | 306 | 17.7 | 29.0 | 0.00 | 0.00 | 0.00 | 17 | 1011.4 |
| 20260503220032 | 24 | 290 | 9.7 | 22.5 | 0.00 | 0.00 | 0.00 | 19 | 1011.6 |
| 20260503214540 | 24 | 288 | 14.5 | 27.4 | 0.00 | 0.00 | 0.00 | 19 | 1011.8 |
| 20260503213030 | 23 | 279 | 16.1 | 38.6 | 0.00 | 0.00 | 0.00 | 20 | 1012.1 |
| 20260503211529 | 23 | 268 | 14.5 | 24.1 | 0.00 | 0.00 | 0.00 | 21 | 1012.3 |
| 20260503210034 | 23 | 305 | 17.7 | 25.7 | 0.00 | 0.00 | 0.00 | 21 | 1012.7 |
| 20260503204534 | 23 | 294 | 14.5 | 33.8 | 0.00 | 0.00 | 0.00 | 22 | 1012.8 |
| 20260503203029 | 23 | 271 | 12.9 | 25.7 | 0.00 | 0.00 | 0.00 | 23 | 1012.9 |
| 20260503201532 | 23 | 261 | 16.1 | 29.0 | 0.00 | 0.00 | 0.00 | 22 | 1013.1 |
| 20260503200041 | 22 | 202 | 8.0 | 25.7 | 0.00 | 0.00 | 0.00 | 24 | 1013.4 |
| 20260503194530 | 22 | 242 | 6.4 | 24.1 | 0.00 | 0.00 | 0.00 | 25 | 1013.8 |
| 20260503193036 | 22 | 303 | 9.7 | 24.1 | 0.00 | 0.00 | 0.00 | 24 | 1014.0 |
| 20260503191529 | 22 | 292 | 14.5 | 27.4 | 0.00 | 0.00 | 0.00 | 25 | 1014.2 |
| 20260503190031 | 22 | 262 | 9.7 | 27.4 | 0.00 | 0.00 | 0.00 | 27 | 1014.4 |
| 20260503184539 | 21 | 273 | 16.1 | 27.4 | 0.00 | 0.00 | 0.00 | 27 | 1014.4 |
| 20260503183030 | 21 | 284 | 12.9 | 22.5 | 0.00 | 0.00 | 0.00 | 28 | 1014.7 |
| 20260503181532 | 21 | 265 | 14.5 | 27.4 | 0.00 | 0.00 | 0.00 | 29 | 1015.0 |
| 20260503180044 | 21 | 298 | 12.9 | 25.7 | 0.00 | 0.00 | 0.00 | 32 | 1015.1 |
| 20260503174543 | 20 | 275 | 3.2 | 24.1 | 0.00 | 0.00 | 0.00 | 32 | 1015.3 |
| 20260503173039 | 20 | 183 | 6.4 | 25.7 | 0.00 | 0.00 | 0.00 | 32 | 1015.3 |
| 20260503171533 | 20 | 304 | 14.5 | 24.1 | 0.00 | 0.00 | 0.00 | 33 | 1015.5 |